Location: Duffs
(47.4500°N, 53.1167°W)
Time: 13:01:14
(UTC+00:00)

ISS - Visible Passes

Search period start: 25 May 2022 00:00
Search period end: 04 June 2022 00:00
Orbit: 414 x 421 km, 51.6° (Epoch: 25 May)

Date Brightness Start Highest point End Pass type
(mag) Time Alt. Az. Time Alt. Az. Time Alt. Az.
25 May -3.7 01:15:17 10° WNW 01:18:39 78° NNE 01:20:10 30° ESE visible
25 May -1.2 02:52:29 10° W 02:53:05 13° W 02:53:05 13° W visible
26 May -3.3 00:27:12 10° WNW 00:30:32 58° NNE 00:33:42 11° E visible
26 May -2.6 02:04:08 10° WNW 02:06:37 31° WSW 02:06:37 31° WSW visible
27 May -3.5 01:15:55 10° WNW 01:19:11 51° SSW 01:20:09 36° SSE visible
28 May -3.8 00:27:46 10° WNW 00:31:07 77° SSW 00:33:43 16° ESE visible
28 May -1.4 02:05:29 10° W 02:06:37 14° WSW 02:06:37 14° WSW visible
29 May -2.2 01:16:47 10° W 01:19:28 23° SW 01:20:12 21° SSW visible
30 May -2.8 00:28:22 10° WNW 00:31:27 35° SW 00:33:48 15° SSE visible
01 Jun -1.5 00:29:29 10° W 00:31:32 15° SW 00:33:34 10° S visible
